Location: Unspecified
(48.5539°N, 71.6350°W)
Time: 16:44:46
(UTC-05:00)

ISS - Pass Details

Date: 25 January 2019
Orbit: 403 x 411 km, 51.6° (Epoch: 18 February)

Event Time Altitude Azimuth Distance (km) Brightness Sun altitude
Rises 20:16:14 0° 274° (W) 2,339 1.0 -36.5°
Enters shadow 20:17:07 - 276° (W) 1,982 0.5 -36.7°
Reaches altitude 10° 20:18:22 10° 280° (W) 1,480 - -36.9°
Maximum altitude 20:21:36 47° 356° (N) 552 - -37.4°
Drops below altitude 10° 20:24:50 10° 73° (ENE) 1,485 - -37.9°
Sets 20:26:59 0° 79° (E) 2,348 - -38.2°
